Location: ???? ?????????
(44.3677°N, 135.2344°E)
Time: 10:46:37
(UTC+00:00)

ATLAS 3B R/B - Pass Details

Date: 19 May 2025
Orbit: 935 x 1258 km, 63.8° (Epoch: 13 June)

Event Time Altitude Azimuth Distance (km) Brightness Sun altitude
Exits shadow 16:08:38 - 263° (W) 3,417 5.1 -23.6°
Reaches altitude 10° 16:09:40 10° 268° (W) 3,119 4.9 -23.5°
Maximum altitude 16:16:15 31° 328° (NNW) 2,013 4.4 -23.1°
Drops below altitude 10° 16:23:06 10° 29° (NNE) 3,244 6.3 -22.7°
Sets 16:26:22 0° 39° (NE) 4,218 7.1 -22.4°
